Temperature
16 16 16 16 16 16 16 16 16 16 16 16 16 16 16 16 16 16 16 16 16 16 16 16 16 16 16 16 16 16 16 16 16 16 16 16 15 15 15 15 15 14 15
16 16 16 16 16 16 16 16 16 16 16 16 16 16 16 16 16 16 16 16 16 16 16 16 16 16 16 16 16 15 16 16 16 16 16 15 15 15 15 15 15 15 15
16 16 16 16 16 16 16 16 16 16 16 16 16 16 16 16 16 16 16 16 16 16 15 15 16 16 16 16 15 15 15 16 16 15 15 14 15 15 15 15 15 15 15
16 15 16 16 16 16 16 16 16 16 16 16 16 16 16 16 16 16 16 16 16 16 16 16 16 15 16 16 15 15 15 15 15 15 14 14 14 15 15 15 15 15 15
15 15 15 16 16 16 16 16 16 16 16 16 16 16 16 16 16 16 16 16 16 16 16 16 16 15 16 16 15 15 15 15 15 15 14 14 14 15 15 15 15 15 15
15 15 15 15 16 16 16 16 16 16 16 16 16 16 16 16 16 16 16 16 16 16 16 16 15 15 15 15 15 15 15 15 15 14 14 14 14 14 15 15 15 15 15
15 15 15 15 15 15 16 16 16 16 16 16 16 16 16 16 16 16 16 16 16 15 15 15 15 15 15 15 15 15 15 15 14 14 14 14 14 15 14 15 15 15 15
14 14 14 15 15 15 15 15 15 15 15 15 15 15 16 16 16 16 16 15 15 15 15 15 15 15 15 15 15 15 15 15 15 14 14 14 14 14 14 14 15 15 14
14 14 14 14 15 15 15 15 15 15 15 15 15 15 15 15 15 15 15 15 15 15 15 15 15 15 15 15 15 15 15 15 14 14 14 14 14 14 14 14 14 14 14
14 14 14 14 14 15 15 15 15 15 15 15 15 15 15 15 15 15 15 15 15 15 15 15 15 15 15 15 15 15 15 15 14 14 14 14 14 14 14 14 14 14 14
14 14 14 14 14 14 14 14 14 14 14 14 14 14 14 15 15 15 15 15 15 15 15 14 15 15 15 15 15 15 14 14 14 14 14 14 14 14 14 14 14 14 14
13 14 14 14 14 14 14 14 14 14 14 14 14 14 14 14 14 14 14 14 14 14 14 14 14 14 14 14 14 14 14 14 14 14 14 14 14 14 14 14 14 14 14
13 13 13 13 14 14 14 14 14 14 14 14 14 14 14 14 14 14 14 14 14 14 14 14 14 14 14 14 14 14 14 13 13 13 14 14 14 14 14 14 14 14 14
12 13 13 13 13 14 14 14 14 13 13 14 14 14 14 13 14 13 14 14 14 13 13 13 13 13 13 13 13 13 13 13 13 13 13 14 14 14 13 13 13 13 13
12 13 13 13 13 14 13 14 13 13 13 13 13 13 13 13 13 13 13 13 13 13 13 13 13 13 13 13 13 13 13 13 13 13 13 14 14 13 13 13 13 13 13
12 12 12 13 13 13 13 13 13 13 13 13 13 13 13 13 13 13 13 13 13 13 13 13 13 13 13 13 13 13 13 13 13 13 13 13 13 13 13 13 13 13 13
12 12 12 12 12 13 13 13 13 13 13 12 12 12 12 13 13 13 13 13 13 13 13 13 12 12 12 12 12 12 12 12 12 12 12 13 13 13 13 13 13 13 13
12 12 12 12 12 12 12 13 12 12 12 12 12 12 12 12 12 12 12 12 12 12 12 12 12 12 12 12 12 12 12 12 12 12 12 12 12 12 12 12 12 12 12
11 11 12 12 12 12 12 12 12 12 12 12 12 12 12 12 12 12 12 12 12 12 12 12 12 12 12 12 12 12 12 12 12 12 12 12 12 12 12 12 12 12 12
11 11 11 11 11 11 11 11 11 11 11 11 11 11 12 12 12 12 12 12 12 12 12 12 12 11 11 11 11 12 12 12 12 12 12 12 12 12 12 12 12 12 12
11 11 11 11 11 11 11 11 11 11 11 11 11 11 11 11 11 11 11 11 11 11 11 11 11 11 11 11 11 11 11 11 11 11 11 11 11 11 11 11 11 11 11
11 11 11 11 11 11 11 11 11 11 11 11 11 11 11 11 11 11 11 11 11 11 11 11 10 10 10 10 10 10 10 10 10 11 11 11 11 11 11 11 11 11 11
11 11 10 11 11 10 10 10 10 10 10 10 10 10 11 11 11 11 11 11 11 11 10 10 10 10 10 10 10 9 10 10 10 10 10 10 10 10 10 10 10 10 10
10 10 10 10 10 10 10 10 10 10 10 10 10 10 10 10 10 10 10 10 10 10 10 10 10 10 9 9 9 9 9 9 9 9 9 9 10 10 10 10 10 10 10
10 10 10 10 10 10 10 10 10 10 10 10 10 10 10 10 10 10 10 10 10 10 10 10 10 9 9 9 9 9 9 9 8 8 8 9 9 9 9 9 9 9 10
10 10 10 10 10 10 10 10 10 10 9 10 9 9 10 10 9 10 9 9 9 9 9 9 9 9 9 9 8 8 8 8 8 8 8 8 8 8 9 9 9 9 9
Wind_Speed
6 8 10 10 10 11 12 12 13 14 14 14 14 14 13 13 12 12 11 11 11 11 11 11 10 11 11 11 11 11 11 11 11 11 11 10 10 10 10 8 6 10 11
7 9 11 11 11 11 11 12 13 13 14 14 13 13 13 12 12 11 11 11 11 11 10 10 10 10 10 10 10 10 10 10 10 10 9 9 9 9 9 8 8 9 9
8 10 12 10 10 10 11 11 13 13 13 13 13 13 12 12 12 11 11 10 10 10 10 9 9 9 9 9 9 10 9 9 9 8 6 7 9 8 8 8 8 8 8
7 9 11 11 10 10 10 11 12 13 13 13 13 12 12 11 11 11 10 10 10 9 9 9 9 8 8 9 9 9 9 9 8 6 5 6 7 8 7 6 6 6 6
7 8 10 11 11 11 11 10 11 12 12 12 12 12 11 11 10 10 9 9 9 9 9 8 8 8 8 8 8 8 8 8 7 6 5 5 6 7 6 5 5 5 5
7 8 10 10 11 11 11 11 11 12 12 12 12 12 11 11 10 10 9 9 9 8 8 8 7 7 7 7 7 7 7 8 8 5 5 4 5 6 5 5 4 4 4
6 6 9 10 10 10 11 11 11 11 11 11 11 11 11 11 10 10 9 8 8 8 8 7 7 7 6 6 6 7 7 7 6 5 4 4 4 4 5 4 4 3 3
5 6 8 9 9 9 10 10 10 10 10 10 9 9 11 10 10 9 9 8 8 7 7 7 7 7 6 6 6 6 6 7 6 5 4 4 4 4 5 5 4 4 3
5 6 7 9 10 9 10 10 9 9 9 9 8 8 9 10 10 10 9 8 7 7 7 6 6 6 6 5 5 6 5 6 7 5 4 4 5 5 5 5 5 5 4
5 5 6 7 8 9 9 10 9 9 9 9 8 8 7 9 10 10 9 8 7 7 6 6 6 6 5 5 5 6 6 7 7 6 5 4 5 6 7 6 6 5 5
5 5 5 6 7 8 9 9 9 9 8 8 8 8 7 7 9 8 8 7 7 6 6 6 5 5 5 6 6 6 7 6 6 5 5 4 6 7 7 7 7 6 6
7 6 5 5 6 7 7 8 8 8 8 7 6 7 6 5 6 7 8 7 7 7 7 6 5 6 6 5 6 7 6 6 6 5 5 6 7 8 8 7 7 7 6
6 6 5 5 6 7 6 6 6 6 6 7 6 6 5 4 5 6 6 6 6 7 6 6 6 5 5 4 5 6 6 5 5 5 5 6 8 8 8 8 8 8 7
5 5 5 5 6 6 7 6 5 5 5 5 5 5 4 3 3 4 3 5 5 5 4 5 4 4 5 5 6 6 6 6 5 5 5 6 8 9 10 9 9 8 8
5 5 5 5 5 5 6 5 5 5 5 5 5 5 4 2 2 3 3 3 3 3 4 4 4 4 4 5 5 6 6 7 7 7 6 7 9 10 10 10 9 9 9
4 4 4 4 4 5 5 5 5 5 5 5 4 4 4 2 2 3 3 2 2 3 3 3 4 4 4 4 5 6 6 7 7 7 7 6 8 9 9 9 9 9 9
3 3 3 3 3 4 4 4 4 4 4 4 4 5 4 3 2 2 2 2 2 2 2 3 3 4 3 4 5 5 5 6 6 7 7 6 6 8 9 9 9 9 9
2 3 3 3 3 3 3 3 3 4 4 3 3 3 3 2 2 2 2 2 2 2 2 2 2 3 3 4 4 5 5 5 6 6 6 6 6 6 8 9 9 8 8
2 3 3 3 3 3 3 3 3 3 4 3 3 2 3 2 3 2 2 2 2 2 2 2 2 2 3 4 4 4 5 5 5 5 6 6 6 6 6 6 8 8 8
3 3 3 3 3 3 3 3 3 3 3 2 2 2 3 2 3 3 2 2 2 2 2 2 2 2 3 3 4 4 5 5 5 5 6 5 5 6 6 6 6 7 8
3 3 3 3 2 3 2 2 2 2 2 2 2 2 2 1 2 2 2 2 2 2 2 2 2 2 2 2 2 4 4 5 5 4 4 5 5 5 5 6 5 5 5
2 2 2 2 2 2 2 2 2 1 1 1 1 1 1 1 2 2 2 2 2 2 2 2 2 2 2 2 2 3 3 4 4 4 4 4 4 4 4 5 5 5 5
2 3 2 3 3 3 3 3 3 2 1 2 2 1 0 1 2 2 2 2 2 2 2 2 2 3 3 2 3 3 3 4 3 3 4 4 4 4 4 4 5 5 5
2 1 1 3 4 4 4 3 4 3 2 2 1 1 1 1 1 2 2 2 2 2 2 3 3 3 4 3 3 4 5 4 4 4 3 3 4 4 5 4 4 5 5
0 1 1 3 3 4 4 4 4 3 2 1 1 1 1 1 2 2 3 2 2 2 2 3 3 3 3 4 4 3 4 4 5 5 6 5 4 4 4 5 4 4 5
1 1 1 3 3 3 4 4 5 4 3 2 2 1 1 1 1 2 2 2 2 2 3 3 3 4 4 5 4 4 4 4 5 5 6 7 6 5 4 4 4 4 4
Wind_Direction
154 155 148 153 147 150 152 150 150 150 148 145 144 143 141 138 136 134 134 136 135 133 130 127 125 123 122 119 118 116 112 108 104 101 98 97 96 96 94 90 97 93 85
152 157 148 152 150 150 155 155 154 152 150 148 147 147 147 144 142 140 139 138 137 135 135 133 131 128 126 126 125 122 118 115 111 108 108 107 101 97 94 82 64 85 87
151 155 154 148 150 153 156 158 157 154 152 151 150 150 151 150 149 146 141 138 138 134 134 134 133 133 132 132 131 131 128 127 124 127 148 126 114 108 102 94 88 89 91
154 157 156 147 151 152 155 159 160 157 155 153 151 151 152 152 151 148 145 140 136 134 133 132 134 136 137 137 137 138 138 138 140 165 150 124 122 116 114 108 102 97 97
155 158 153 152 153 149 149 151 162 162 159 157 156 155 155 156 154 151 146 141 137 134 133 131 135 138 141 143 146 147 146 146 159 179 138 134 128 124 126 119 112 109 105
159 158 154 155 154 152 152 151 158 163 163 161 160 159 158 158 157 151 146 143 140 139 139 138 136 138 141 147 154 156 157 164 182 162 153 150 139 130 139 131 129 125 119
161 155 157 155 155 154 154 152 155 159 158 160 164 164 163 161 159 153 149 146 146 148 147 147 148 149 149 151 156 164 169 183 188 173 172 166 143 143 161 153 149 149 152
160 153 155 150 147 150 153 151 155 160 156 156 161 167 167 162 158 155 154 153 154 155 155 156 160 161 160 161 164 165 179 196 194 187 188 183 151 175 186 180 177 179 183
161 159 160 162 157 149 145 146 153 160 157 156 157 156 162 158 157 157 158 159 161 163 161 161 164 167 169 171 172 174 183 209 212 199 198 196 170 198 204 202 198 197 196
168 166 164 164 166 162 154 143 146 148 150 152 151 150 151 160 160 161 163 161 161 163 164 163 166 170 175 181 185 186 196 213 216 212 211 191 188 215 216 214 212 210 214
179 178 173 167 168 164 160 154 152 147 144 151 153 150 161 173 171 171 166 160 162 162 163 164 165 170 181 185 187 195 207 221 220 224 221 189 211 224 225 223 223 221 222
191 190 181 172 172 164 158 161 161 163 157 159 160 166 172 173 175 174 162 167 174 175 175 170 170 179 203 202 192 200 220 227 229 227 219 201 223 230 235 235 230 228 230
198 192 186 181 176 168 159 161 161 166 164 161 162 166 171 170 175 175 171 175 184 189 191 179 187 200 214 217 218 223 231 234 234 232 216 203 228 233 238 240 234 230 232
199 194 190 187 181 174 165 160 165 167 167 161 165 165 164 161 175 174 177 183 190 198 201 203 214 215 224 226 229 233 234 237 240 239 227 214 235 238 240 239 235 235 236
199 195 193 187 182 173 167 161 168 173 172 163 165 165 161 169 182 181 183 185 194 202 206 216 226 226 232 234 235 239 241 241 242 240 235 218 234 239 240 241 240 239 239
203 196 190 186 181 168 172 165 168 172 167 160 160 165 165 174 194 189 192 197 203 211 219 225 235 239 241 243 245 245 247 247 246 244 248 229 220 230 234 239 240 242 243
191 181 167 168 170 166 164 161 162 165 160 155 156 163 161 171 196 198 195 204 215 215 223 234 239 243 247 249 252 254 253 254 253 251 246 247 234 221 228 237 241 244 246
154 148 142 150 150 154 148 147 157 155 149 145 147 157 159 164 189 197 195 201 211 222 227 230 235 244 246 251 255 256 254 252 252 251 247 244 246 243 228 228 235 240 245
144 136 130 140 143 131 125 125 145 145 141 140 146 158 168 175 190 187 197 200 200 222 226 228 245 252 256 261 264 265 263 258 254 250 248 246 246 247 248 226 222 233 240
139 139 135 135 138 134 132 130 130 129 131 141 153 169 173 178 191 188 198 199 197 208 216 224 239 255 264 270 272 272 271 264 258 253 253 249 246 248 249 248 237 231 231
133 145 142 138 132 143 136 141 150 145 134 145 160 162 173 186 195 188 198 201 198 203 210 220 249 251 262 276 267 271 267 259 254 252 251 249 244 245 244 243 243 242 233
151 155 162 159 155 149 138 140 142 140 143 143 147 126 145 199 200 200 199 199 199 203 208 215 225 253 262 253 258 270 269 256 249 252 250 248 251 248 247 243 240 237 239
183 183 178 182 180 164 148 143 141 145 168 177 179 154 62 282 195 193 195 195 204 213 218 228 226 233 243 246 249 255 260 261 288 252 255 255 258 259 257 249 246 244 242
208 197 197 180 175 165 163 163 162 172 182 201 185 153 202 236 210 188 198 200 199 211 224 228 228 238 238 240 245 254 267 278 272 277 254 255 267 265 265 258 250 250 249
155 163 173 156 163 165 172 173 178 189 191 180 176 189 211 224 239 212 206 207 208 215 227 233 234 237 238 243 246 249 254 259 255 261 272 277 274 269 273 271 261 253 251
100 116 154 155 165 169 176 183 187 193 195 190 200 208 230 249 249 222 216 216 222 225 227 231 230 236 239 242 247 247 248 250 249 252 263 276 280 279 277 269 263 261 257
Height
1514 1515 1516 1518 1520 1521 1523 1524 1525 1527 1528 1529 1530 1531 1532 1533 1533 1534 1535 1536 1536 1537 1537 1538 1538 1539 1539 1539 1540 1540 1540 1541 1541 1541 1541 1541 1541 1542 1542 1542 1542 1542 1541
1512 1514 1515 1517 1519 1521 1522 1524 1525 1527 1528 1529 1530 1531 1532 1533 1534 1535 1535 1536 1537 1537 1538 1538 1539 1539 1540 1540 1540 1541 1541 1542 1542 1542 1542 1542 1543 1543 1543 1543 1543 1543 1542
1512 1514 1515 1517 1519 1520 1522 1523 1525 1526 1528 1529 1530 1531 1532 1533 1534 1535 1536 1536 1537 1538 1538 1539 1539 1540 1540 1541 1541 1542 1542 1542 1543 1543 1543 1544 1544 1544 1544 1544 1543 1543 1543
1512 1513 1514 1516 1518 1520 1521 1523 1524 1526 1527 1529 1530 1531 1532 1533 1534 1535 1535 1536 1537 1538 1538 1539 1540 1540 1541 1541 1542 1542 1543 1543 1543 1544 1545 1545 1545 1544 1544 1544 1544 1544 1544
1512 1513 1514 1516 1517 1519 1521 1522 1524 1525 1527 1528 1529 1530 1531 1532 1533 1534 1535 1536 1537 1537 1538 1539 1540 1540 1541 1541 1542 1542 1543 1543 1544 1545 1545 1545 1545 1545 1545 1544 1544 1544 1544
1511 1513 1514 1515 1517 1518 1520 1522 1523 1525 1526 1528 1529 1530 1531 1532 1533 1534 1535 1535 1536 1537 1538 1538 1539 1540 1540 1541 1542 1542 1543 1543 1544 1545 1545 1546 1546 1545 1545 1545 1544 1544 1544
1511 1512 1513 1515 1516 1517 1519 1521 1522 1524 1525 1527 1528 1530 1530 1531 1532 1533 1534 1535 1536 1536 1537 1538 1538 1539 1540 1541 1541 1542 1543 1543 1544 1545 1545 1545 1545 1544 1544 1544 1544 1544 1544
1510 1511 1512 1514 1515 1517 1518 1520 1521 1523 1524 1525 1527 1528 1530 1530 1531 1532 1533 1534 1535 1536 1536 1537 1538 1539 1539 1540 1541 1541 1542 1543 1543 1544 1544 1545 1544 1544 1544 1544 1544 1544 1544
1509 1510 1511 1513 1514 1515 1517 1518 1520 1521 1523 1524 1526 1527 1528 1529 1530 1531 1532 1533 1534 1535 1535 1536 1537 1537 1538 1539 1540 1540 1541 1542 1543 1543 1543 1543 1543 1543 1543 1543 1543 1543 1543
1507 1509 1510 1511 1512 1514 1515 1517 1518 1520 1522 1524 1525 1526 1527 1528 1529 1530 1531 1532 1533 1533 1534 1535 1536 1536 1537 1538 1539 1539 1540 1540 1541 1541 1542 1542 1542 1542 1542 1542 1542 1542 1542
1506 1507 1508 1509 1510 1512 1514 1515 1517 1519 1521 1522 1524 1525 1526 1527 1528 1529 1529 1530 1531 1532 1533 1534 1534 1535 1536 1536 1537 1538 1538 1539 1540 1540 1540 1540 1540 1540 1541 1541 1541 1541 1541
1504 1505 1506 1507 1508 1510 1512 1513 1515 1517 1519 1521 1522 1523 1524 1525 1526 1527 1528 1529 1530 1531 1532 1532 1533 1534 1534 1535 1535 1536 1537 1537 1537 1537 1538 1537 1538 1538 1539 1539 1539 1539 1539
1502 1503 1504 1505 1507 1508 1509 1511 1513 1515 1517 1519 1520 1521 1522 1523 1524 1525 1526 1527 1528 1529 1530 1531 1531 1532 1533 1533 1533 1534 1534 1535 1535 1535 1535 1535 1536 1536 1536 1537 1537 1537 1537
1500 1501 1502 1504 1505 1505 1507 1508 1511 1512 1514 1516 1518 1519 1520 1521 1522 1523 1524 1525 1526 1527 1528 1529 1529 1530 1530 1531 1531 1532 1532 1532 1533 1533 1533 1533 1533 1533 1534 1534 1534 1535 1535
1498 1499 1500 1501 1502 1503 1504 1506 1508 1510 1512 1513 1515 1516 1518 1519 1520 1521 1522 1523 1524 1525 1526 1527 1527 1528 1528 1529 1529 1529 1530 1530 1530 1530 1530 1530 1530 1530 1531 1531 1531 1532 1532
1496 1498 1498 1499 1500 1501 1502 1503 1506 1508 1510 1511 1513 1514 1516 1517 1518 1519 1520 1521 1522 1523 1524 1524 1525 1526 1526 1526 1526 1527 1527 1527 1527 1527 1527 1527 1527 1527 1528 1528 1528 1528 1529
1495 1496 1496 1497 1497 1499 1500 1501 1503 1505 1507 1508 1510 1512 1514 1515 1516 1517 1518 1519 1520 1520 1521 1522 1522 1523 1523 1523 1524 1524 1524 1524 1524 1524 1524 1524 1524 1524 1524 1525 1525 1525 1525
1493 1493 1494 1495 1496 1496 1498 1499 1501 1503 1505 1507 1508 1510 1512 1513 1514 1515 1516 1517 1517 1518 1518 1519 1520 1520 1521 1521 1521 1521 1521 1521 1521 1521 1521 1521 1521 1521 1521 1521 1521 1522 1522
1491 1492 1493 1494 1494 1495 1497 1498 1501 1502 1503 1505 1507 1508 1510 1511 1511 1512 1513 1514 1515 1515 1516 1516 1517 1517 1518 1518 1518 1518 1519 1518 1518 1518 1518 1517 1517 1517 1518 1517 1518 1518 1518
1491 1492 1493 1493 1493 1494 1495 1496 1498 1500 1501 1503 1505 1506 1507 1508 1509 1510 1511 1512 1512 1513 1513 1514 1514 1514 1515 1515 1515 1515 1515 1515 1515 1514 1514 1514 1513 1514 1514 1514 1514 1514 1514
1490 1491 1492 1493 1493 1493 1494 1495 1497 1498 1500 1502 1503 1503 1504 1505 1506 1508 1509 1509 1510 1510 1511 1511 1512 1512 1512 1512 1513 1513 1512 1512 1511 1511 1510 1510 1510 1510 1510 1510 1510 1510 1510
1489 1489 1491 1491 1492 1493 1493 1495 1496 1497 1498 1500 1500 1501 1502 1503 1504 1505 1506 1507 1507 1507 1508 1508 1509 1509 1509 1510 1510 1510 1510 1510 1508 1507 1507 1506 1506 1506 1506 1506 1506 1506 1506
1488 1489 1490 1490 1490 1491 1492 1493 1494 1496 1496 1497 1498 1498 1499 1500 1501 1502 1503 1504 1504 1505 1505 1506 1506 1507 1507 1507 1508 1509 1509 1507 1506 1505 1503 1503 1503 1502 1502 1502 1502 1502 1502
1486 1486 1487 1488 1488 1489 1491 1491 1493 1494 1495 1496 1496 1496 1498 1498 1499 1499 1500 1501 1501 1502 1503 1503 1503 1504 1504 1504 1505 1505 1506 1505 1504 1502 1501 1500 1499 1499 1499 1498 1498 1498 1497
1485 1485 1486 1486 1487 1488 1489 1490 1492 1493 1494 1494 1494 1495 1496 1495 1496 1497 1498 1498 1499 1499 1500 1500 1500 1501 1501 1501 1501 1501 1501 1501 1501 1501 1498 1497 1496 1495 1495 1494 1494 1494 1493
1485 1485 1486 1486 1487 1488 1488 1489 1490 1491 1492 1492 1493 1493 1493 1494 1494 1494 1495 1495 1496 1496 1497 1497 1497 1498 1498 1498 1498 1498 1498 1498 1497 1497 1495 1494 1493 1492 1491 1490 1490 1489 1489